Regional Weather Roundup
Issued by NWS

Home | Current Version | Previous Version | Text Only | Print | Product List | Glossary Off
Versions: 1 2 3 4 5 6 7 8 9 10 11 12 13 14 15 16 17 18 19 20 21 22 23 24 25 26 27 28 29 30 31 32 33 34 35 36 37 38 39 40 41 42 43 44 45 46 47 48 49 50

000
ASUS43 KMPX 181101
RWRMN
WEATHER ROUNDUP FOR MINNESOTA
NATIONAL WEATHER SERVICE TWIN CITIES/CHANHASSEN MN
600 AM CDT SAT APR 18 2015


NOTE: "FAIR" INDICATES FEW OR NO CLOUDS BELOW 12,000 FEET WITH NO
SIGNIFICANT WEATHER AND/OR OBSTRUCTIONS TO VISIBILITY. N/A MEANS
CURRENT SKY AND/OR WEATHER CONDITIONS ARE NOT AVAILABLE.

MNZ060>063-068>070-181200-
   Twin Cities Metro

CITY           SKY/WX    TMP DP  RH WIND       PRES   REMARKS
TWIN CITIES    PTCLDY    54  29  38 NE12      30.08R
ST PAUL        PTCLDY    53  29  39 CALM      30.10R
CRYSTAL        PTCLDY    48  29  47 CALM      30.08R
BLAINE         PTCLDY    45  30  57 CALM      30.09S
LAKEVILLE      PTCLDY    46  34  61 NE7       30.07R
EDEN PRAIRIE   PTCLDY    52  29  41 NE7       30.06R
SOUTH ST PAUL  PTCLDY    53  28  38 E7        30.09R
LAKE ELMO      FAIR      48  32  53 NE5       30.10R
$$
MNZ001>005-007-008-013>017-022>024-027-028-181200-
   Northwest Minnesota

CITY           SKY/WX    TMP DP  RH WIND       PRES   REMARKS
BEMIDJI        CLEAR     32  27  83 NE7       30.15F WCI  25
HALLOCK        CLEAR     36  28  75 E10       30.17S
ROSEAU         FAIR      36  30  80 E8        30.20S
WARROAD        CLEAR     34  30  86 E7        30.21F WCI  28
THIEF RVR FALL CLEAR     36  28  75 E10       30.17F
CROOKSTON      CLEAR     37  28  70 E8        30.15F
FOSSTON        CLEAR     36  27  69 E8        30.14F
DETROIT LAKES  CLEAR     45  30  57 E5        30.12S
MOORHEAD       CLEAR     30  18  59 N3        30.10S
PARK RAPIDS    CLEAR     42  30  62 NE6       30.13R
MAHNOMEN       FAIR      36  27  69 NE6       30.11F
$$
MNZ006-009>011-018-025>026-181200-
   North Central Minnesota

CITY           SKY/WX    TMP DP  RH WIND       PRES   REMARKS
BAUDETTE       CLEAR     31  28  89 E6        30.22R WCI  25
FLAG ISLAND    CLEAR     34  30  86 CALM      30.22R
INTL FALLS     CLEAR     29  25  85 NE7       30.22S WCI  22
WASKISH        FAIR      32  28  86 CALM      30.20R
BIG FORK       CLEAR     34  28  80 NE3       30.20R
LONGVILLE      CLEAR     37  28  70 E3        30.15S
GRAND RAPIDS   CLEAR     37  27  65 E3        30.18R
ORR            CLEAR     30  27  86 CALM      30.19S
COOK           CLEAR     30  28  93 NE3       30.20F
WALKER         FAIR      41  32  69 E8        30.14F
$$
MNZ012-019>021-037-181200-
   Northeast Minnesota

CITY           SKY/WX    TMP DP  RH WIND       PRES   REMARKS
DULUTH         CLEAR     40  29  64 E13G20    30.17R
ELY            CLEAR     34  30  86 E3        30.21R
HIBBING        CLEAR     30  25  81 NE3       30.19R
EVELETH        CLEAR     34  30  86 E6        30.20R WCI  29
DULUTH HARBOR  CLEAR     39  36  87 E16       30.21R
TWO HARBORS    CLEAR     39  30  70 NE7       30.18R
SILVER BAY     CLEAR     36  28  75 CALM      30.20R
GRAND MARAIS     N/A     36  30  79 CALM      30.24R
G MARAIS ARPRT CLEAR     30  27  86 CALM      30.20R
$$
MNZ029>031-032-039>041-046>048-054>057-064-181200-
   West Central Minnesota

CITY           SKY/WX    TMP DP  RH WIND       PRES   REMARKS
FERGUS FALLS   CLEAR     46  23  39 E10       30.09S
WHEATON        MOCLDY    36  25  64 CALM      30.10R
MORRIS         PTCLDY    48  27  43 E13       30.06S
ALEXANDRIA     PTCLDY    45  25  45 E10       30.10R
ELBOW LAKE     FAIR      48  28  47 E13       30.08R
WADENA         CLEAR     39  27  60 NE7       30.11S
GLENWOOD       PTCLDY    41  27  56 NE7       30.10R
APPLETON       PTCLDY    45  28  53 E9        30.06S
BENSON         PTCLDY    48  25  40 E12       30.06S
ORTONVILLE     PTCLDY    45  28  53 CALM      30.06R
MADISON        PTCLDY    41  23  48 CALM      30.06S
WILLMAR        FAIR      50  30  46 E9        30.08S
$$
MNZ033>034-036-042>043-049>051-058-059-181200-
   Central Minnesota

CITY           SKY/WX    TMP DP  RH WIND       PRES   REMARKS
ST CLOUD       CLEAR     48  27  44 E9        30.10R
SAUK CENTRE    FAIR      47  27  45 E9        30.10R
PAYNESVILLE    CLEAR     42  26  53 CALM      30.09S
AITKIN         CLEAR     41  30  65 NE3       30.13R
PINE RIVER     CLEAR     39  28  65 CALM      30.17S
BRAINERD       CLEAR     41  29  62 NE9       30.13S
STAPLES        CLEAR     41  27  56 CALM      30.12S
LONG PRAIRIE   FAIR      43  27  52 NE7       30.10S
LITTLE FALLS   CLEAR     45  27  49 CALM      30.11R
LITCHFIELD     PTCLDY    48  30  49 NE6       30.08S
BUFFALO        PTCLDY    48  28  46 NE9       30.09S
MAPLE LAKE     PTCLDY    48  30  49 NE6       30.09F
$$
MNZ037-044-045-052-053-181200-
   East Central Minnesota

CITY           SKY/WX    TMP DP  RH WIND       PRES   REMARKS
PRINCETON      CLEAR     48  28  46 NE6       30.11R
MORA           CLEAR     43  30  61 NE5       30.14R
CAMBRIDGE      CLEAR     48  34  57 CALM      30.10R
RUSH CITY      PTCLDY    46  31  55 NE7       30.12R
MOOSE LAKE     CLEAR     41  30  65 CALM      30.14R
HINCKLEY       FAIR      43  32  65 NE3       30.13S
CLOQUET        CLEAR     39  28  65 E14G21    30.17R
MCGREGOR       CLEAR     37  30  75 NE5       30.15S
$$
MNZ071>073-080-081-089-090-097-098-181200-
   Southwest Minnesota

CITY           SKY/WX    TMP DP  RH WIND       PRES   REMARKS
MONTEVIDEO     PTCLDY    41  27  56 E9        30.07S
GRANITE FALLS  PTCLDY    44  27  50 E3        30.07S
CANBY          MOCLDY    46  29  52 CALM      30.07S
MARSHALL       MOCLDY    45  21  39 CALM      30.04F
REDWOOD FALLS  MOCLDY    47  24  40 NE6       30.05S
OLIVIA         PTCLDY    41  27  56 NE7       30.05F
PIPESTONE      MOCLDY    54  18  24 E8        30.01F
WINDOM         CLOUDY    52  30  43 E2        30.04S
WORTHINGTON    MOCLDY    48  27  43 NE8       30.03S
JACKSON        MOCLDY    52  30  43 E9        30.03S
TRACY          MOCLDY    50  24  36 CALM      30.04F
SLAYTON        CLOUDY    52  26  36 NE6       30.04F
$$
MNZ065>067-074>077-082>085-091>093-181200-
   South Central Minnesota

CITY           SKY/WX    TMP DP  RH WIND       PRES   REMARKS
MANKATO        MOCLDY    55  30  38 N3        30.05S
NEW ULM        MOCLDY    52  23  32 NE5       30.05S
ST JAMES       MOCLDY    45  34  65 N3        30.05S
FAIRMONT       MOCLDY    48  27  43 CALM      30.03S
GLENCOE        MOCLDY    47  32  56 NE3       30.06S
FARIBAULT      MOCLDY    46  34  61 N6        30.05R
OWATONNA       MOCLDY    41  34  75 CALM      30.06R
ALBERT LEA     MOCLDY    52  36  54 E5        30.04S
$$
MNZ078>079-086>088-094>096-181200-
   Southeast Minnesota

CITY           SKY/WX    TMP DP  RH WIND       PRES   REMARKS
ROCHESTER      PTCLDY    46  36  68 SE5       30.06S
RED WING       PTCLDY    48  30  49 SE7       30.07S
STANTON        PTCLDY    37  32  84 E3        30.05S
DODGE CENTER   MOCLDY    46  34  61 E3        30.05R
WINONA         PTCLDY    46  41  81 CALM      30.07R
AUSTIN         PTCLDY    48  37  66 CALM      30.04S
PRESTON        PTCLDY    53  35  49 CALM      30.06S
$$
ABBREVIATIONS USED IN REMARKS
   TC - TEMPERATURES IN CELSIUS
  WCI - WIND CHILL INDEX
   HX - HEAT INDEX
  VSB - VISIBILITY
$$



USA.gov is the U.S. government's official web portal to all federal, state and local government web resources and services.